[[{"header":{"parameterUnit":"m.s-1","parameterCategory":1,"la1":30.2991,"la2":30.254,"lo1":-89.0895,"lo2":-89.0444,"dy":0.0017,"dx":0.0017,"nx":28,"ny":28,"refTime":"2024-02-05T09:00:00:Z","depth":0,"parameterNumber":2,"parameterNumberName":"U-component_of_WINDS"},"data":[0,0,0,0,0,0,0,0,0,0,0,0,0,0,0,0,0,0,0,0,0,0,0,0,0,0,0,0,0,0,0,0,0,0,0,0,0,0,0,0,0,0,0,0,0,0,0,0,0,0,0,0,0,0,0,0,0,0,1.0072,1.0072,0,1.005,1.0049,1.0049,1.0059,1.0059,1.006,1.006,1.0034,1.0033,1.0031,0,0,0,0,0,0,0,0,0,0,0,0,0,1.0121,1.012,1.0072,1.0072,1.0072,1.005,1.0049,1.0049,1.0059,1.0059,1.006,1.0061,1.0034,1.0033,1.0031,0,0,0,0,0,0,0,0,0,0,0,0,0,1.0099,1.012,1.0072,1.0074,1.0074,1.005,1.0049,1.0049,1.0058,1.0059,1.006,1.0061,1.0035,1.0033,1.0031,1.0003,0,0,1.0025,1.0025,0,0,0,0,0,0,0,0,1.01,1.0097,1.0074,1.0074,1.0074,1.0058,1.0057,1.0033,1.0058,1.0064,1.006,1.0061,1.0041,1.0039,1.0032,1.0002,1.0001,1.0025,1.0024,1.0023,1.0023,0,0,0,0,0,0,0,1.0102,1.0098,1.0063,1.0073,1.0073,1.0075,1.0073,1.0052,1.0048,1.0064,1.0064,1.0062,1.0041,1.0034,1.0032,1.0,1.0025,1.0024,1.0023,1.0022,0.9945,0.9945,0,0,0,0,0,0,1.0104,1.0099,1.0064,1.0062,1.0089,1.0073,1.0071,1.0062,1.0048,1.0047,1.0061,1.0062,1.0037,1.0034,1.0031,0.9997,1.0023,1.0022,1.0021,0.9946,0.9945,0.9944,0,0,0,0,0,0,1.0105,1.01,1.0065,1.0081,1.0077,1.0072,1.0062,1.0061,1.0054,1.0046,1.0045,1.0055,1.0037,1.0034,1.001,0.9996,1.0021,1.0019,0.9947,0.9946,0.9945,0.9928,0,0,0,0,0,0,1.0106,1.0101,1.0091,1.0081,1.0076,1.0045,1.0061,1.006,1.0052,1.0053,1.004,1.0039,1.0038,1.0013,1.0008,0.9994,1.0018,0.9949,0.9947,0.9945,0.993,0.9927,0.9924,0,0,0,0,0,1.0108,1.0086,1.009,1.0086,1.0063,1.0044,1.0041,1.0041,1.005,1.004,1.0035,1.0039,0.9999,1.001,1.0005,0.999,0.995,0.9947,0.9945,0.9932,0.9927,0.9924,0,0,0,0,0,0,1.0093,1.0085,1.0089,1.0064,1.0055,1.0046,1.0032,1.0036,1.0024,1.0025,1.0025,1.0022,0.9998,0.9992,1.0005,0.9962,0.9975,0.9972,0.9967,0.9963,0.9959,0.996,1.0016,0,0,0,0,0,1.0087,1.0073,1.0066,1.0045,1.004,1.0037,1.0029,1.003,1.002,1.0016,1.0009,0.9998,0.9983,0.9973,0.9958,0.993,0.9927,0.9917,0.9914,0.9911,0.9908,0.9892,0.9887,0.9937,0.9937,0.9937,0,0,1.0073,1.0068,1.0058,1.0042,1.0035,1.0019,1.0034,1.0017,1.0005,1.0013,0.999,0.9985,0.9973,0.9947,0.9935,0.9941,0.9894,0.9909,0.9907,0.9905,0.9889,0.9885,0.988,0.9936,0.9936,0.9936,0,0,1.0041,1.0036,1.0017,1.001,1.0,0.9999,0.9994,0.9985,0.9982,0.996,0.9966,0.9952,0.9926,0.9917,0.9909,0.9875,0.9879,0.9871,0.9853,0.9837,0.9833,0.983,0.9816,0.9812,0.9868,0.9868,0.9868,0,1.0025,1.0004,1.0007,0.999,0.9982,0.999,0.997,0.9963,0.9948,0.9942,0.995,0.9918,0.9911,0.9882,0.9874,0.9868,0.9862,0.9871,0.9834,0.983,0.9827,0.9814,0.9809,0.9867,0.9867,0.9867,0.9867,0,0.9984,0.9969,0.9955,0.9942,0.9933,0.9915,0.9914,0.9904,0.9906,0.9904,0.9881,0.9873,0.9857,0.9851,0.9852,0.9823,0.9827,0.9834,0.9847,0.9821,0.9809,0.9804,0.9865,0.9866,0.9866,0.9866,0,0,0.994,0.993,0.9924,0.9919,0.9909,0.9897,0.9879,0.9865,0.9856,0.9846,0.983,0.9809,0.9816,0.9807,0.9808,0.9795,0.9767,0.9804,0.9804,0.9796,0.9733,0.9726,0.9721,0.9771,0.977,0.9769,0.9734,0,0.9906,0.9875,0.9878,0.9849,0.9834,0.9843,0.9827,0.9819,0.9816,0.9803,0.98,0.9785,0.9796,0.9791,0.9778,0.9773,0.9755,0.9776,0.9755,0.9754,0.9755,0.9715,0.9707,0.9674,0.9729,0.9729,0.9728,0,0.9861,0.9851,0.9821,0.9814,0.9808,0.9794,0.9781,0.9769,0.976,0.9759,0.975,0.9753,0.9735,0.975,0.9723,0.9738,0.973,0.9726,0.9725,0.9721,0.9738,0.9708,0.9663,0.9657,0.9721,0.9721,0.9722,0,0.983,0.9809,0.9788,0.9783,0.9774,0.9764,0.976,0.9752,0.9744,0.9733,0.9727,0.9713,0.9705,0.9695,0.9694,0.9705,0.9667,0.9682,0.9664,0.9664,0.9654,0.9654,0.9605,0.9652,0.9652,0.9652,0.9652,0,0.979,0.9771,0.9774,0.976,0.9739,0.9743,0.9721,0.9718,0.9711,0.9697,0.9704,0.969,0.9691,0.9677,0.9677,0.9654,0.9651,0.9649,0.9649,0.9647,0.9647,0.964,0.9641,0.9651,0.9651,0.9651,0.9652,0,0.975,0.9752,0.9729,0.9724,0.9722,0.9706,0.9701,0.9688,0.9688,0.967,0.9665,0.9663,0.9647,0.9647,0.9628,0.9628,0.96,0.9603,0.9603,0.9603,0.9585,0.9586,0.9527,0.9519,0.9573,0.9573,0.9572,0,0.9724,0.9709,0.9703,0.9695,0.969,0.9677,0.9668,0.9672,0.9663,0.9652,0.964,0.9626,0.9613,0.9587,0.9583,0.9569,0.9571,0.9552,0.9569,0.9568,0.9569,0.9569,0.9567,0.9548,0.9547,0.9547,0.9546,0,0.9676,0.9678,0.9666,0.9655,0.9645,0.9636,0.9628,0.962,0.9623,0.9612,0.9597,0.9588,0.9569,0.9554,0.9541,0.9535,0.954,0.9542,0.9536,0.9533,0.9533,0.9531,0.9592,0.9542,0.9542,0.9543,0.9543,0.9543,0.9641,0.9628,0.9622,0.9609,0.9604,0.9596,0.9584,0.9582,0.9569,0.9555,0.9559,0.9541,0.9533,0.9515,0.951,0.9495,0.9501,0.9494,0.9492,0.949,0.9487,0.9538,0.9493,0.9493,0.9493,0.9493,0.9493,0,0.9592,0.9589,0.9577,0.9566,0.9556,0.9564,0.9556,0.9546,0.953,0.9523,0.9512,0.9494,0.948,0.9476,0.9461,0.9451,0.9453,0.9447,0.9446,0.9445,0.9483,0.9488,0.9445,0.9445,0.9445,0.9445,0.9445,0.9445,0.9565,0.9544,0.9546,0.9522,0.9519,0.9502,0.9497,0.949,0.9484,0.9464,0.9452,0.9451,0.9444,0.943,0.9417,0.9416,0.941,0.9402,0.9402,0.9437,0.9442,0.9447,0.9451,0.9401,0.9401,0.9365,0.9365,0.9364]},{"header":{"parameterUnit":"m.s-1","parameterCategory":1,"la1":30.2991,"la2":30.254,"lo1":-89.0895,"lo2":-89.0444,"dy":0.0017,"dx":0.0017,"nx":28,"ny":28,"refTime":"2024-02-05T09:00:00:Z","depth":0,"parameterNumber":3,"parameterNumberName":"V-component_of_WINDS"},"data":[0,0,0,0,0,0,0,0,0,0,0,0,0,0,0,0,0,0,0,0,0,0,0,0,0,0,0,0,0,0,0,0,0,0,0,0,0,0,0,0,0,0,0,0,0,0,0,0,0,0,0,0,0,0,0,0,0,0,-3.7867,-3.7869,0,-3.8036,-3.8038,-3.804,-3.8016,-3.8013,-3.8011,-3.8008,-3.8179,-3.8186,-3.8194,0,0,0,0,0,0,0,0,0,0,0,0,0,-3.7524,-3.7531,-3.7867,-3.7869,-3.7871,-3.8035,-3.8038,-3.804,-3.8017,-3.8013,-3.801,-3.8007,-3.8177,-3.8186,-3.8194,0,0,0,0,0,0,0,0,0,0,0,0,0,-3.7681,-3.7533,-3.7867,-3.788,-3.7882,-3.8035,-3.8038,-3.8041,-3.8017,-3.8013,-3.8009,-3.8005,-3.8174,-3.8185,-3.8195,-3.8346,0,0,-3.8228,-3.8233,0,0,0,0,0,0,0,0,-3.7672,-3.7694,-3.7876,-3.7879,-3.7882,-3.8001,-3.798,-3.8143,-3.8018,-3.7966,-3.8008,-3.8003,-3.8123,-3.8138,-3.8179,-3.8354,-3.8361,-3.8229,-3.8236,-3.824,-3.8243,0,0,0,0,0,0,0,-3.7661,-3.7686,-3.7934,-3.7878,-3.7882,-3.7877,-3.7894,-3.8011,-3.8066,-3.797,-3.7969,-3.7989,-3.8124,-3.8168,-3.8183,-3.8364,-3.8229,-3.8238,-3.8245,-3.8249,-3.8671,-3.8676,0,0,0,0,0,0,-3.7647,-3.7677,-3.7928,-3.7939,-3.7765,-3.7886,-3.7906,-3.7967,-3.8065,-3.8076,-3.7993,-3.7988,-3.8152,-3.817,-3.8189,-3.8372,-3.824,-3.825,-3.8257,-3.8666,-3.8672,-3.8677,0,0,0,0,0,0,-3.764,-3.767,-3.7922,-3.7808,-3.784,-3.7897,-3.7965,-3.7972,-3.8017,-3.8082,-3.8091,-3.8028,-3.815,-3.8173,-3.8307,-3.8378,-3.8255,-3.8265,-3.8661,-3.8668,-3.8675,-3.874,0,0,0,0,0,0,-3.763,-3.7668,-3.7725,-3.7809,-3.7846,-3.8038,-3.797,-3.7979,-3.8035,-3.803,-3.8117,-3.8128,-3.8148,-3.8291,-3.8318,-3.839,-3.8273,-3.8655,-3.8664,-3.8673,-3.8732,-3.8748,-3.8762,0,0,0,0,0,-3.7618,-3.7737,-3.7729,-3.7759,-3.7919,-3.8042,-3.8063,-3.8084,-3.8041,-3.81,-3.8142,-3.8125,-3.8365,-3.8305,-3.8335,-3.8412,-3.8651,-3.8662,-3.8672,-3.8725,-3.8745,-3.8762,0,0,0,0,0,0,-3.7659,-3.7748,-3.774,-3.7889,-3.7958,-3.8038,-3.8113,-3.8105,-3.8188,-3.818,-3.8202,-3.8222,-3.8358,-3.8398,-3.8329,-3.8563,-3.8502,-3.8519,-3.8532,-3.8552,-3.8567,-3.8555,-3.8282,0,0,0,0,0,-3.7686,-3.7778,-3.785,-3.7975,-3.801,-3.8056,-3.811,-3.812,-3.8193,-3.8222,-3.8273,-3.8344,-3.8436,-3.8496,-3.8583,-3.8737,-3.8756,-3.8804,-3.8819,-3.8832,-3.8847,-3.8932,-3.8954,-3.8713,-3.8712,-3.8712,0,0,-3.7741,-3.7801,-3.7858,-3.7985,-3.804,-3.8135,-3.808,-3.8183,-3.8254,-3.8237,-3.8367,-3.8408,-3.8488,-3.8632,-3.8699,-3.867,-3.8918,-3.8845,-3.8855,-3.8863,-3.8945,-3.8968,-3.8988,-3.872,-3.8718,-3.8717,0,0,-3.7891,-3.7946,-3.8056,-3.8112,-3.8196,-3.8226,-3.8252,-3.8333,-3.836,-3.849,-3.848,-3.8564,-3.8721,-3.8779,-3.8829,-3.9001,-3.8989,-3.9029,-3.911,-3.9193,-3.9212,-3.9229,-3.9291,-3.9313,-3.9043,-3.9044,-3.9044,0,-3.795,-3.8093,-3.8113,-3.8218,-3.8275,-3.8264,-3.8376,-3.8429,-3.8537,-3.8577,-3.8543,-3.874,-3.8793,-3.8952,-3.8994,-3.9034,-3.9065,-3.902,-3.9207,-3.9225,-3.9241,-3.9301,-3.9324,-3.9048,-3.9047,-3.9047,-3.9047,0,-3.8162,-3.8261,-3.834,-3.8446,-3.8511,-3.8619,-3.8655,-3.8718,-3.8723,-3.8756,-3.8889,-3.8953,-3.9054,-3.9091,-3.9097,-3.9251,-3.9231,-3.9202,-3.9142,-3.9268,-3.9325,-3.9348,-3.9054,-3.9053,-3.9051,-3.905,0,0,-3.8344,-3.8459,-3.8488,-3.8536,-3.8628,-3.8705,-3.8812,-3.8911,-3.8965,-3.904,-3.9131,-3.9264,-3.9238,-3.9295,-3.9306,-3.9379,-3.9512,-3.9341,-3.9343,-3.9372,-3.9687,-3.971,-3.9736,-3.9504,-3.9509,-3.9512,-3.9681,0,-3.8504,-3.8694,-3.8716,-3.8885,-3.8978,-3.8969,-3.9062,-3.9128,-3.9162,-3.9245,-3.9281,-3.9376,-3.9334,-3.9368,-3.9439,-3.9481,-3.9576,-3.9469,-3.9589,-3.9594,-3.9571,-3.9765,-3.9789,-3.9946,-3.9703,-3.9707,-3.971,0,-3.8717,-3.8798,-3.8978,-3.9057,-3.9097,-3.918,-3.9273,-3.9353,-3.9428,-3.9447,-3.951,-3.9513,-3.9623,-3.9557,-3.971,-3.9637,-3.9687,-3.9715,-3.9721,-3.9735,-3.966,-3.9785,-3.9996,-4.002,-3.9745,-3.9742,-3.9739,0,-3.8833,-3.8988,-3.9115,-3.9156,-3.9252,-3.9311,-3.9353,-3.9424,-3.9483,-3.9563,-3.9601,-3.9693,-3.9744,-3.9816,-3.9843,-3.9792,-3.9994,-3.993,-4.0014,-4.0014,-4.0058,-4.0056,-4.0282,-4.0088,-4.0088,-4.0087,-4.0087,0,-3.9011,-3.9121,-3.9169,-3.9248,-3.9371,-3.9394,-3.9515,-3.9555,-3.9618,-3.9704,-3.97,-3.9781,-3.9811,-3.9897,-3.9918,-4.0042,-4.0065,-4.0083,-4.0088,-4.0085,-4.0083,-4.0119,-4.011,-4.0094,-4.0092,-4.0091,-4.009,0,-3.9163,-3.9199,-3.9338,-3.9417,-3.9439,-3.9527,-3.9594,-3.967,-3.9702,-3.9811,-3.9838,-3.9888,-3.9989,-4.0022,-4.0143,-4.0158,-4.0303,-4.0297,-4.0278,-4.0279,-4.0361,-4.0354,-4.062,-4.0657,-4.0438,-4.044,-4.0441,0,-3.9275,-3.936,-3.9448,-3.9506,-3.9551,-3.9643,-3.9703,-3.9728,-3.9791,-3.9882,-3.9947,-4.0047,-4.0129,-4.029,-4.0337,-4.043,-4.0427,-4.0514,-4.0441,-4.0436,-4.0431,-4.0426,-4.0435,-4.0528,-4.0531,-4.0533,-4.0534,0,-3.947,-3.9484,-3.957,-3.9664,-3.9735,-3.981,-3.9881,-3.9929,-3.9964,-4.0035,-4.0138,-4.0201,-4.0325,-4.0425,-4.052,-4.0563,-4.0555,-4.0556,-4.0581,-4.0579,-4.0566,-4.0576,-4.0317,-4.0551,-4.0549,-4.0548,-4.0547,-4.0546,-3.9607,-3.9682,-3.9756,-3.9853,-3.991,-3.9977,-4.0053,-4.0094,-4.0181,-4.0285,-4.0294,-4.0405,-4.0478,-4.0605,-4.0652,-4.074,-4.0715,-4.075,-4.076,-4.0768,-4.0775,-4.055,-4.0757,-4.0756,-4.0756,-4.0755,-4.0755,0,-3.9803,-3.9851,-3.9939,-4.004,-4.0116,-4.0102,-4.0181,-4.0245,-4.0344,-4.0412,-4.0493,-4.0611,-4.0708,-4.0762,-4.0859,-4.0918,-4.0917,-4.0943,-4.0939,-4.095,-4.0791,-4.0761,-4.0942,-4.0942,-4.0942,-4.0942,-4.0942,-4.0942,-3.9915,-4.0042,-4.0064,-4.022,-4.0266,-4.0376,-4.0422,-4.0484,-4.0539,-4.0672,-4.0753,-4.0787,-4.0851,-4.0951,-4.1039,-4.1053,-4.1089,-4.1118,-4.1129,-4.098,-4.0961,-4.0943,-4.0915,-4.1125,-4.1125,-4.128,-4.1282,-4.1283]}]]